Dewpoint
34 35 36 37 37 38 38 38 40 40 39 39 39 39 39 38 38 38 38 37 37 37 36 36 36 36 36 37 36 37 37 37 37 38 38 38 38 38 39 39 39 39 39 39 38 38 38 38 38 38 38 38 38 37 37 36 37 36 36 36 36 36 36 36 36 35 35 35 35
34 34 36 38 38 38 38 38 39 39 39 39 39 39 39 38 38 37 37 37 36 36 36 35 36 36 35 36 36 36 36 37 37 37 38 38 38 38 38 38 38 39 39 39 39 38 38 38 38 38 38 38 38 37 37 37 37 37 36 36 36 36 36 36 36 36 36 36 36
34 34 35 36 36 36 37 37 38 38 38 38 38 38 38 38 37 37 36 36 36 35 35 35 35 35 35 36 36 37 37 37 37 37 37 37 37 38 38 38 38 38 39 39 39 39 39 38 38 38 38 38 38 37 37 37 37 37 37 37 37 37 37 37 37 37 37 37 37
34 35 35 35 35 36 36 36 36 36 37 37 37 37 36 36 36 36 35 36 35 35 35 34 34 35 35 36 36 37 37 37 37 37 37 37 37 37 38 38 38 38 38 39 39 39 39 39 39 39 38 38 38 38 38 38 37 37 37 37 37 37 37 37 37 37 37 37 37
34 35 35 36 36 36 36 37 36 36 36 36 36 36 35 35 35 35 35 34 34 34 34 35 35 35 36 36 36 36 36 37 38 38 37 37 37 37 38 38 38 38 38 39 40 40 39 39 39 39 39 39 39 38 38 38 38 38 38 38 38 38 38 38 38 38 38 38 38
34 35 36 36 36 36 36 36 36 36 36 36 35 35 34 34 34 34 34 34 34 35 35 36 36 36 36 36 36 36 36 37 38 38 37 37 37 37 37 37 37 37 38 38 39 39 40 39 39 39 39 39 39 39 39 39 38 38 38 38 38 38 38 38 38 38 38 38 37
35 36 36 36 37 37 37 37 36 36 36 35 34 34 34 34 34 34 34 34 35 35 36 36 36 36 36 36 36 36 37 37 37 37 37 37 37 36 36 37 37 37 37 38 38 38 39 39 39 39 39 39 39 39 39 39 39 38 38 38 38 38 39 39 39 39 38 38 38
36 36 36 37 37 37 37 37 37 36 35 35 34 34 34 34 35 35 35 34 35 35 35 36 35 36 36 36 36 36 36 36 36 36 36 36 36 36 36 36 36 36 37 38 37 37 38 38 38 38 38 38 38 38 38 39 39 39 38 38 38 39 39 40 41 40 40 40 41
36 37 37 38 37 37 38 38 37 36 35 35 35 35 35 35 35 35 35 34 35 35 35 35 35 35 35 36 35 35 35 35 35 35 36 36 35 35 35 36 35 36 36 37 37 37 37 37 37 37 37 37 37 38 38 39 39 39 39 38 38 38 39 39 40 39 39 40 41
36 37 37 37 37 38 38 37 37 37 36 35 35 35 35 36 36 35 34 34 35 35 34 34 34 35 35 35 35 35 35 34 34 34 34 35 34 34 35 35 35 35 36 36 36 36 36 36 36 36 37 37 37 38 38 39 39 40 40 39 39 39 39 38 38 38 38 39 41
36 36 36 36 37 37 38 37 37 37 37 36 36 36 36 36 35 35 34 35 34 34 34 34 34 34 34 35 34 34 34 34 34 34 34 34 34 34 34 35 35 36 36 36 36 36 36 36 36 36 36 36 37 38 38 38 38 39 40 39 39 39 39 39 39 39 38 39 40
35 36 36 36 37 37 38 37 37 37 37 37 36 35 35 34 34 34 34 34 33 33 33 34 34 34 34 34 34 34 34 33 33 33 33 33 33 34 34 34 35 36 37 36 36 36 36 37 37 36 36 36 37 37 38 38 38 38 38 38 38 39 39 40 40 39 38 38 40
35 35 35 36 37 37 38 37 37 37 36 36 35 35 34 34 34 34 33 33 32 32 33 34 34 34 34 33 33 33 33 32 32 32 32 32 33 33 34 34 35 37 37 37 36 36 36 36 37 37 36 36 36 37 37 38 38 38 39 39 38 38 38 40 39 39 38 38 39
34 34 35 36 36 36 37 37 37 36 35 35 34 34 34 33 33 33 32 32 32 32 32 33 33 33 33 32 32 32 31 31 31 31 31 31 32 32 33 34 35 37 38 37 37 36 36 36 37 37 36 36 36 37 37 38 38 39 39 39 39 39 39 39 39 39 39 39 39
34 34 34 35 35 35 35 36 35 35 34 34 34 33 33 32 32 32 32 32 32 32 32 32 32 32 32 32 31 31 30 30 30 30 30 30 31 32 33 34 35 37 38 38 38 37 37 37 36 36 36 37 37 37 38 38 39 39 39 39 39 39 39 38 38 39 39 39 38
33 33 34 34 34 34 34 34 34 34 34 33 33 33 32 31 31 32 32 32 32 32 32 31 31 31 32 32 31 30 30 30 29 29 30 31 32 33 33 34 35 38 40 40 38 38 37 36 36 36 37 38 39 38 38 38 39 39 39 39 39 39 39 39 38 38 38 38 38
32 32 33 33 33 33 34 34 33 33 33 33 33 32 32 32 32 32 32 32 31 31 31 31 31 31 32 32 32 31 30 30 30 30 30 31 33 34 34 35 37 39 41 41 39 38 37 36 36 37 38 39 39 39 38 38 38 38 38 38 38 38 38 38 38 38 38 38 38
31 31 32 32 32 32 33 34 33 33 33 33 32 32 32 32 31 32 32 32 32 31 31 31 31 32 32 32 32 32 31 31 31 31 31 32 33 34 35 36 38 40 40 40 39 38 37 36 36 36 37 38 38 38 38 38 38 38 38 38 38 38 38 38 38 38 38 38 38
31 31 31 31 32 32 33 33 33 32 32 32 31 32 32 32 31 31 31 31 31 31 31 31 31 31 32 31 32 32 32 32 32 32 32 33 34 34 35 36 38 40 40 40 39 39 38 37 36 35 35 37 38 38 38 38 38 38 38 38 37 37 37 37 38 38 38 38 38
30 30 31 31 32 32 32 32 32 31 31 31 31 31 31 31 31 31 31 30 31 31 31 31 31 31 31 31 31 31 32 32 32 32 32 33 34 35 37 37 39 39 39 38 39 39 38 38 36 35 35 36 36 36 36 36 35 36 36 36 36 36 37 37 37 37 37 37 38
30 31 31 31 32 32 32 31 31 31 31 31 31 31 31 31 31 30 30 31 31 31 31 31 31 30 30 31 31 31 32 32 32 32 32 33 34 36 38 39 39 39 38 38 38 38 38 38 36 35 35 35 34 34 34 34 33 34 34 34 34 35 36 36 36 36 36 37 37
31 31 31 32 32 32 31 31 31 31 30 30 30 30 30 30 30 30 31 32 32 31 31 31 30 30 31 31 31 31 32 32 32 32 32 33 34 35 36 37 38 38 38 37 36 36 37 37 37 37 36 35 34 34 34 33 33 33 34 34 33 34 34 34 34 34 35 36 37
31 31 32 32 32 32 31 31 31 30 30 30 30 30 30 29 29 30 31 31 31 31 30 30 30 31 31 31 31 31 31 31 31 31 32 32 34 35 36 37 37 37 37 36 35 34 35 36 35 35 34 34 33 34 34 33 34 34 34 34 34 34 34 34 34 34 35 35 36
32 32 32 31 31 31 31 31 30 30 30 29 29 29 29 29 29 29 29 30 29 29 29 29 30 31 31 31 31 31 31 31 31 32 32 32 33 34 35 36 35 35 35 35 35 35 34 34 34 34 34 33 33 34 34 34 34 34 34 34 34 34 34 34 34 34 34 34 35
31 31 31 31 30 30 30 30 30 29 29 29 29 29 29 29 29 29 29 29 29 29 29 29 29 30 30 30 30 30 30 31 32 34 34 33 33 33 33 33 33 32 33 35 36 36 36 35 35 35 34 34 34 34 34 34 34 34 34 34 34 34 34 34 34 34 34 34 35
31 30 30 30 29 29 29 29 29 29 29 29 29 29 29 29 28 28 28 28 29 29 29 29 29 29 30 29 29 29 30 30 31 34 34 33 34 34 32 31 31 32 34 37 37 36 36 36 36 36 35 35 35 35 34 34 34 34 35 35 35 34 34 34 34 34 34 33 34
30 30 29 29 29 28 28 29 29 29 29 29 29 28 28 28 28 28 28 28 28 29 30 30 30 29 29 29 29 29 30 30 31 33 35 34 34 33 32 31 32 34 36 36 36 36 36 36 36 36 35 34 35 35 34 34 35 35 36 36 36 35 35 35 35 35 35 34 35
30 29 29 29 28 27 27 28 28 28 27 27 27 28 28 28 28 28 27 27 28 29 29 30 29 29 29 28 29 29 30 30 30 31 32 32 32 31 30 30 32 34 35 36 35 35 36 36 36 36 35 35 35 35 34 34 35 35 35 36 36 36 36 37 37 38 38 37 37
30 29 29 28 27 27 27 27 27 26 27 27 27 28 28 29 28 28 27 27 27 28 28 29 29 29 28 28 28 29 29 30 30 30 30 30 30 30 29 29 30 32 33 34 35 35 35 36 36 36 36 36 36 35 35 35 35 35 35 36 36 37 37 37 37 38 38 38 38
30 29 28 27 27 27 26 26 26 26 27 27 27 27 27 28 27 26 26 26 27 28 28 29 29 28 28 28 28 28 28 28 29 29 29 30 29 29 29 29 30 32 34 34 35 35 35 35 36 36 36 36 36 36 35 36 36 36 36 37 37 37 37 37 38 38 38 38 38
30 29 28 27 27 26 26 26 27 27 27 27 27 27 26 26 26 26 26 27 27 28 28 28 28 28 27 26 26 26 26 27 28 28 29 29 29 29 29 29 30 32 34 34 34 35 35 35 35 36 36 36 36 35 35 35 36 36 37 37 37 37 37 37 38 38 38 38 38
30 29 28 27 27 27 26 26 26 26 26 26 26 26 26 26 26 27 27 28 28 28 27 27 27 26 26 25 25 25 25 26 27 28 29 29 29 29 29 29 30 31 33 34 34 34 35 35 35 35 36 36 35 35 36 35 35 36 36 37 37 37 37 37 38 38 38 38 38
30 29 28 28 27 27 27 26 26 26 26 26 25 25 26 27 27 28 28 28 27 27 26 26 26 25 25 25 25 25 25 27 28 29 29 29 29 28 28 29 29 30 32 34 34 34 34 35 35 35 35 36 35 35 35 35 35 36 36 37 37 37 38 38 38 38 38 38 38
31 29 28 28 27 27 26 26 26 26 25 25 25 26 27 28 28 28 28 27 27 26 26 25 25 25 25 25 25 25 26 27 28 28 28 28 27 27 27 28 29 31 33 34 34 34 34 35 35 35 35 35 36 35 35 35 36 36 36 37 37 37 37 38 38 38 38 38 38
31 29 28 27 26 26 26 25 25 25 25 25 25 26 28 28 28 28 27 27 26 26 25 25 25 25 25 25 25 26 27 27 27 27 27 28 27 27 27 27 28 30 32 33 34 34 34 35 35 35 35 35 35 35 35 36 36 36 36 37 37 36 37 37 38 38 38 38 38
29 28 27 26 26 25 25 25 25 25 25 25 26 27 28 28 27 27 27 27 26 26 25 25 25 25 25 25 26 26 26 26 25 26 26 27 27 27 26 26 27 29 31 33 33 34 34 35 35 35 35 35 35 35 35 35 36 36 36 36 36 36 37 37 38 38 38 38 38
28 27 26 25 25 25 25 26 26 26 25 26 27 28 28 28 27 27 27 27 26 25 25 25 24 24 25 25 25 25 26 26 25 25 26 26 27 27 26 26 27 29 30 32 33 34 34 35 35 35 35 34 34 34 35 35 36 36 36 36 36 37 37 37 38 38 38 38 38
27 26 26 26 26 26 26 26 26 26 26 26 27 27 27 27 27 26 26 26 25 25 25 24 24 24 24 25 25 25 26 26 26 25 25 26 26 27 27 26 27 28 30 32 33 34 34 35 35 35 35 34 34 34 34 35 36 36 37 37 37 37 37 38 38 38 38 38 39
27 27 27 26 26 26 26 26 26 26 27 27 27 27 27 26 26 26 26 26 25 25 24 24 23 24 24 25 25 25 25 25 25 26 26 25 26 27 27 27 27 28 30 32 33 34 34 34 35 35 35 34 34 34 35 36 36 37 37 37 37 38 38 38 38 39 39 39 40
27 27 27 26 26 26 26 26 26 27 28 28 27 27 26 26 26 26 26 25 25 24 23 23 23 23 24 24 24 24 25 25 25 26 26 26 27 28 29 28 28 28 29 31 33 34 34 34 35 35 35 34 34 35 35 36 37 37 37 38 38 38 38 38 39 39 40 40 41
27 27 27 27 27 27 26 26 26 27 28 28 27 27 27 26 26 25 25 24 24 23 23 22 22 22 23 24 24 24 24 25 25 25 25 26 27 28 29 28 28 28 29 30 32 33 34 34 35 35 35 35 35 36 36 37 37 37 37 38 38 38 38 39 38 38 38 39 39